Weather History for Tappahannock, VA

Change the Weather History Date:

Saturday, October 5, 2013

  Actual Average (KRIC) Record (KRIC)
Temperature  
Mean Temperature 75 °F 63 °F  
Max Temperature 90 °F 74 °F 97 °F (1941)
Min Temperature 60 °F 52 °F 32 °F (1965)
Degree Days  
Heating Degree Days 0 4  
Month to date heating degree days 17  
Since 1 July heating degree days 46  
Cooling Degree Days 10 2  
Month to date cooling degree days 12  
Year to date cooling degree days 1516  
Growing Degree Days 25 (Base 50)    
Moisture  
Dew Point 63 °F    
Average Humidity 73    
Maximum Humidity 100    
Minimum Humidity 35    
Precipitation  
Precipitation 0.00 in 0.10 in 2.10 in (1948)
Month to date precipitation 0.49  
Year to date precipitation 34.61  
Snow  
Snow 0.00 in 0.00 in 0.00 in (2002)
Month to date snowfall 0.0  
Since 1 July snowfall 0.0  
Snow Depth -    
Sea Level Pressure  
Sea Level Pressure 30.06 in    
Wind  
Wind Speed 1 mph (South)    
Max Wind Speed 7 mph    
Max Gust Speed -    
Visibility 8 miles    
Events Fog    
T = Trace of Precipitation, MM = Missing Value Source: NWS Daily Summary

Daily Weather History Graph

Daily Weather History Graph

Search for Another Location

Airport:

Trip Planner

Search our weather history database for the weather conditions in past years. The results will help you decide how hot, cold, wet, or windy it might be!

Date:

Astronomy

Oct. 05, 2013 Rise Set
Actual Time 7:06 AM EDT 6:44 PM EDT
Civil Twilight 6:40 AM EDT 7:10 PM EDT
Nautical Twilight 6:10 AM EDT 7:40 PM EDT
Astronomical Twilight 5:39 AM EDT 8:11 PM EDT
Moon 7:42 AM EDT (10/5) 7:03 PM EDT (10/5)
Length of Visible Light 12h 29m
Length of Day
11h 37m
New Moon, 0% of the Moon is Illuminated
Oct 5
New Moon
Oct 11
First Quarter
Oct 18
Full
Oct 26
Last Quarter
Nov 3
New

Hourly Weather History & Observations

Time (EDT) Temp. Heat Index Dew Point Humidity Pressure Visibility Wind Dir Wind Speed Gust Speed Precip Events Conditions
12:15 AM 64.8 °F - 64.6 °F 99% 30.07 in 4.0 mi Calm Calm - N/A   Clear
12:35 AM 64.2 °F - 64.2 °F 100% 30.06 in 2.5 mi Calm Calm - N/A   Clear
12:55 AM 63.5 °F - 63.5 °F 100% 30.06 in 3.0 mi Calm Calm - N/A   Clear
1:15 AM 63.3 °F - 63.3 °F 100% 30.06 in 7.0 mi Calm Calm - N/A   Clear
1:35 AM 63.7 °F - 63.7 °F 100% 30.06 in 5.0 mi Calm Calm - N/A   Clear
1:55 AM 62.8 °F - 62.8 °F 100% 30.06 in 3.0 mi Calm Calm - N/A   Clear
2:15 AM 63.5 °F - 63.5 °F 100% 30.06 in 5.0 mi Calm Calm - N/A   Clear
2:35 AM 62.6 °F - 62.6 °F 100% 30.06 in 3.0 mi Calm Calm - N/A   Clear
2:55 AM 61.7 °F - 61.7 °F 100% 30.06 in 7.0 mi Calm Calm - N/A   Clear
3:15 AM 61.5 °F - 61.5 °F 100% 30.06 in 3.0 mi Calm Calm - N/A   Clear
3:35 AM 62.6 °F - 62.6 °F 100% 30.06 in 4.0 mi Calm Calm - N/A   Clear
3:55 AM 61.7 °F - 61.7 °F 100% 30.06 in 2.5 mi Calm Calm - N/A   Clear
4:15 AM 60.6 °F - 60.6 °F 100% 30.06 in 3.0 mi Calm Calm - N/A   Clear
4:35 AM 61.9 °F - 61.9 °F 100% 30.06 in 4.0 mi Calm Calm - N/A   Clear
4:55 AM 60.8 °F - 60.8 °F 100% 30.07 in 4.0 mi Calm Calm - N/A   Clear
5:15 AM 60.8 °F - 60.8 °F 100% 30.07 in 5.0 mi Calm Calm - N/A   Clear
5:35 AM 60.6 °F - 60.6 °F 100% 30.08 in 7.0 mi Calm Calm - N/A   Clear
5:55 AM 60.8 °F - 60.8 °F 100% 30.08 in 4.0 mi Calm Calm - N/A   Clear
6:15 AM 61.0 °F - 61.0 °F 100% 30.08 in 2.5 mi Calm Calm - N/A   Clear
6:35 AM 61.0 °F - 61.0 °F 100% 30.09 in 0.5 mi Calm Calm - N/A Fog Fog
6:55 AM 60.1 °F - 60.1 °F 100% 30.09 in 2.0 mi Calm Calm - N/A   Clear
7:15 AM 61.0 °F - 61.0 °F 100% 30.09 in 3.0 mi Calm Calm - N/A   Clear
7:35 AM 60.4 °F - 60.4 °F 100% 30.09 in 2.0 mi Calm Calm - N/A   Clear
7:55 AM 62.6 °F - 62.6 °F 100% 30.10 in 5.0 mi Calm Calm - N/A   Clear
8:15 AM 65.5 °F - 65.5 °F 100% 30.10 in 7.0 mi Calm Calm - N/A   Clear
8:35 AM 69.1 °F - 66.4 °F 91% 30.10 in 10.0 mi Calm Calm - N/A   Clear
8:55 AM 74.3 °F - 66.7 °F 77% 30.10 in 10.0 mi Calm Calm - N/A   Clear
9:15 AM 75.6 °F - 66.4 °F 73% 30.10 in 10.0 mi Calm Calm - N/A   Clear
9:35 AM 78.4 °F - 64.8 °F 63% 30.10 in 10.0 mi Calm Calm - N/A   Clear
9:55 AM 80.8 °F 82.6 °F 65.3 °F 59% 30.10 in 10.0 mi Calm Calm - N/A   Clear
10:15 AM 82.6 °F 83.8 °F 63.5 °F 52% 30.10 in 10.0 mi Calm Calm - N/A   Clear
10:35 AM 84.0 °F 85.2 °F 63.5 °F 50% 30.10 in 10.0 mi Calm Calm - N/A   Clear
10:55 AM 84.6 °F 85.4 °F 62.6 °F 48% 30.10 in 10.0 mi North 3.5 mph - N/A   Clear
11:15 AM 85.6 °F 86.1 °F 62.2 °F 45% 30.10 in 10.0 mi Calm Calm - N/A   Clear
11:35 AM 85.3 °F 85.7 °F 61.7 °F 45% 30.09 in 10.0 mi Calm Calm - N/A   Clear
11:55 AM 86.4 °F 87.0 °F 62.8 °F 45% 30.09 in 10.0 mi North 3.5 mph - N/A   Clear
12:15 PM 86.9 °F 87.5 °F 62.4 °F 44% 30.09 in 10.0 mi SE 3.5 mph - N/A   Clear
12:35 PM 86.4 °F 86.8 °F 62.2 °F 44% 30.08 in 10.0 mi Calm Calm - N/A   Clear
12:55 PM 87.1 °F 87.8 °F 62.6 °F 44% 30.08 in 10.0 mi Calm Calm - N/A   Scattered Clouds
1:15 PM 87.8 °F 88.5 °F 62.6 °F 43% 30.07 in 10.0 mi SE 3.5 mph - N/A   Scattered Clouds
1:35 PM 86.0 °F 86.3 °F 61.7 °F 44% 30.06 in 10.0 mi Calm Calm - N/A   Scattered Clouds
1:55 PM 88.3 °F 88.4 °F 61.5 °F 40% 30.05 in 10.0 mi Calm Calm - N/A   Scattered Clouds
2:15 PM 90.7 °F 90.7 °F 60.8 °F 37% 30.05 in 10.0 mi Calm Calm - N/A   Scattered Clouds
2:35 PM 88.5 °F 88.3 °F 60.6 °F 39% 30.04 in 10.0 mi Calm Calm - N/A   Scattered Clouds
2:55 PM 89.2 °F 88.7 °F 59.9 °F 37% 30.04 in 10.0 mi Calm Calm - N/A   Mostly Cloudy
3:15 PM 90.9 °F 90.3 °F 59.4 °F 35% 30.03 in 10.0 mi South 3.5 mph - N/A   Mostly Cloudy
3:35 PM 90.5 °F 89.8 °F 59.7 °F 35% 30.03 in 10.0 mi South 6.9 mph - N/A   Mostly Cloudy
3:55 PM 90.3 °F 89.9 °F 59.9 °F 36% 30.03 in 10.0 mi West 4.6 mph - N/A   Scattered Clouds
4:15 PM 90.5 °F 90.1 °F 60.1 °F 36% 30.03 in 10.0 mi SW 6.9 mph - N/A   Scattered Clouds
4:35 PM 89.8 °F 89.1 °F 59.2 °F 36% 30.03 in 10.0 mi Calm Calm - N/A   Clear
4:55 PM 90.0 °F 89.4 °F 59.9 °F 36% 30.03 in 10.0 mi South 4.6 mph - N/A   Scattered Clouds
5:15 PM 88.5 °F 88.6 °F 61.3 °F 40% 30.03 in 10.0 mi South 3.5 mph - N/A   Scattered Clouds
5:35 PM 87.3 °F 87.5 °F 61.9 °F 42% 30.02 in 10.0 mi South 4.6 mph - N/A   Clear
5:55 PM 85.6 °F 86.6 °F 63.3 °F 47% 30.02 in 10.0 mi Calm Calm - N/A   Clear
6:15 PM 81.3 °F 83.5 °F 66.2 °F 60% 30.02 in 10.0 mi Calm Calm - N/A   Clear
6:35 PM 77.0 °F - 67.3 °F 72% 30.03 in 10.0 mi Calm Calm - N/A   Clear
6:55 PM 74.5 °F - 67.8 °F 80% 30.02 in 10.0 mi Calm Calm - N/A   Clear
7:15 PM 74.3 °F - 66.2 °F 76% 30.03 in 10.0 mi Calm Calm - N/A   Clear
7:35 PM 73.4 °F - 67.5 °F 82% 30.03 in 10.0 mi Calm Calm - N/A   Clear
7:55 PM 72.7 °F - 66.2 °F 80% 30.03 in 10.0 mi Calm Calm - N/A   Clear
8:15 PM 70.9 °F - 67.8 °F 90% 30.03 in 10.0 mi Calm Calm - N/A   Clear
8:35 PM 72.5 °F - 66.2 °F 81% 30.04 in 10.0 mi SSE 3.5 mph - N/A   Clear
8:55 PM 73.0 °F - 66.0 °F 79% 30.04 in 10.0 mi Calm Calm - N/A   Clear
9:15 PM 73.0 °F - 65.3 °F 77% 30.05 in 10.0 mi SSE 3.5 mph - N/A   Clear
9:35 PM 72.3 °F - 64.6 °F 77% 30.05 in 10.0 mi South 3.5 mph - N/A   Clear
9:55 PM 71.4 °F - 64.0 °F 77% 30.05 in 10.0 mi Calm Calm - N/A   Clear
10:15 PM 71.2 °F - 63.7 °F 77% 30.05 in 10.0 mi SSE 3.5 mph - N/A   Clear
10:35 PM 70.5 °F - 63.7 °F 79% 30.05 in 10.0 mi SSE 3.5 mph - N/A   Clear
10:55 PM 71.1 °F - 63.5 °F 77% 30.05 in 10.0 mi SSE 3.5 mph - N/A   Clear
11:15 PM 70.7 °F - 63.7 °F 78% 30.05 in 10.0 mi SSE 3.5 mph - N/A   Clear
11:35 PM 70.7 °F - 63.7 °F 78% 30.04 in 10.0 mi Calm Calm - N/A   Clear
11:55 PM 70.3 °F - 64.0 °F 80% 30.05 in 10.0 mi SSE 3.5 mph - N/A   Clear